• In Uzbekistan
  • List of Countries
  • For 7 days
  • Water Temperature
  • Satellite Maps
  • Weather Map
  • Weather Widgets
  • user-avatar
    Login

    Hourly Weather Carapicuiba

    Today, 23 September, Sunday

    Time Temperature Precipitation Wind Pressure Humidity
    00:00 +19°C° 0 mm 2 mps 697 mmHg 82%
    01:00 +19°C° 0 mm 2 mps 696 mmHg 82%
    02:00 +19°C° 0 mm 2 mps 696 mmHg 83%
    03:00 +19°C° 0 mm 1 mps 696 mmHg 83%
    04:00 +19°C° 0 mm 1 mps 696 mmHg 83%
    05:00 +19°C° 0 mm 1 mps 696 mmHg 82%
    06:00 +19°C° 0 mm 1 mps 696 mmHg 82%
    07:00 +22°C° 0 mm 1 mps 697 mmHg 72%
    08:00 +24°C° 0 mm 1 mps 698 mmHg 62%
    09:00 +27°C° 0 mm 1 mps 699 mmHg 52%
    10:00 +28°C° 0 mm 1 mps 699 mmHg 46%
    11:00 +30°C° 0 mm 2 mps 699 mmHg 41%
    12:00 +32°C° 0 mm 2 mps 699 mmHg 35%
    13:00 +32°C° 0 mm 2 mps 699 mmHg 34%
    14:00 +32°C° 0 mm 1 mps 698 mmHg 34%
    15:00 +32°C° 0 mm 1 mps 698 mmHg 33%
    16:00 +31°C° 0 mm 1 mps 698 mmHg 40%
    17:00 +29°C° 0 mm 1 mps 697 mmHg 47%
    18:00 +27°C° 0 mm 1 mps 697 mmHg 54%
    19:00 +26°C° 0 mm 1 mps 697 mmHg 57%
    20:00 +25°C° 0 mm 1 mps 697 mmHg 61%
    21:00 +24°C° 0 mm 1 mps 697 mmHg 65%
    22:00 +24°C° 0 mm 1 mps 697 mmHg 66%
    23:00 +23°C° 0 mm 1 mps 697 mmHg 67%

    Tomorrow, 24 September, Monday

    Time Temperature Precipitation Wind Pressure Humidity
    00:00 +23°C° 0 mm 1 mps 697 mmHg 68%
    01:00 +22°C° 0 mm 1 mps 697 mmHg 69%
    02:00 +22°C° 0 mm 1 mps 696 mmHg 69%
    03:00 +22°C° 0 mm 1 mps 696 mmHg 69%
    04:00 +21°C° 0 mm 1 mps 696 mmHg 68%
    05:00 +21°C° 0 mm 1 mps 697 mmHg 68%
    06:00 +19°C° 0 mm 0 mps 697 mmHg 68%
    07:00 +22°C° 0 mm 0 mps 698 mmHg 59%
    08:00 +25°C° 0 mm 0 mps 699 mmHg 50%
    09:00 +28°C° 0 mm 0 mps 699 mmHg 42%
    10:00 +31°C° 0 mm 1 mps 699 mmHg 37%
    11:00 +33°C° 0 mm 1 mps 699 mmHg 32%
    12:00 +34°C° 0 mm 1 mps 699 mmHg 27%
    13:00 +34°C° 0 mm 1 mps 699 mmHg 28%
    14:00 +35°C° 0 mm 2 mps 698 mmHg 28%
    15:00 +35°C° 0 mm 2 mps 697 mmHg 28%
    16:00 +32°C° 0 mm 2 mps 697 mmHg 34%
    17:00 +30°C° 0 mm 2 mps 697 mmHg 41%
    18:00 +27°C° 0 mm 2 mps 697 mmHg 47%
    19:00 +26°C° 0 mm 2 mps 697 mmHg 49%
    20:00 +25°C° 0 mm 2 mps 698 mmHg 51%
    21:00 +24°C° 0 mm 2 mps 698 mmHg 53%
    22:00 +24°C° 0 mm 2 mps 698 mmHg 53%
    23:00 +23°C° 0 mm 2 mps 698 mmHg 53%

    Day after tomorrow, 25 September, Tuesday

    Time Temperature Precipitation Wind Pressure Humidity
    00:00 +23°C° 0 mm 2 mps 698 mmHg 53%
    01:00 +23°C° 0 mm 2 mps 697 mmHg 54%
    02:00 +22°C° 0 mm 1 mps 696 mmHg 55%
    03:00 +22°C° 0 mm 1 mps 696 mmHg 56%
    04:00 +22°C° 0 mm 1 mps 696 mmHg 58%
    05:00 +21°C° 0 mm 1 mps 696 mmHg 60%
    06:00 +21°C° 0 mm 1 mps 696 mmHg 62%
    07:00 +23°C° 0 mm 1 mps 697 mmHg 56%
    08:00 +26°C° 0 mm 1 mps 698 mmHg 50%
    09:00 +28°C° 0 mm 1 mps 698 mmHg 44%
    10:00 +30°C° 0 mm 1 mps 698 mmHg 40%
    11:00 +31°C° 0 mm 1 mps 698 mmHg 36%
    12:00 +34°C° 0 mm 2 mps 699 mmHg 32%
    13:00 +34°C° 0 mm 2 mps 698 mmHg 33%
    14:00 +34°C° 0 mm 2 mps 697 mmHg 33%
    15:00 +34°C° 0 mm 2 mps 696 mmHg 34%
    16:00 +31°C° 0 mm 2 mps 696 mmHg 41%
    17:00 +29°C° 0 mm 2 mps 696 mmHg 49%
    18:00 +27°C° 0 mm 2 mps 696 mmHg 56%
    19:00 +26°C° 0 mm 2 mps 696 mmHg 62%
    20:00 +25°C° 0 mm 2 mps 696 mmHg 67%
    21:00 +24°C° 0 mm 2 mps 697 mmHg 73%
    22:00 +24°C° 0 mm 2 mps 696 mmHg 74%
    23:00 +23°C° 0 mm 2 mps 696 mmHg 75%

    26 September, Wednesday

    Time Temperature Precipitation Wind Pressure Humidity
    00:00 +23°C° 0 mm 2 mps 696 mmHg 76%
    01:00 +23°C° 0 mm 1 mps 695 mmHg 75%
    02:00 +23°C° 0 mm 1 mps 695 mmHg 73%
    03:00 +22°C° 0 mm 1 mps 694 mmHg 72%
    04:00 +23°C° 0 mm 1 mps 694 mmHg 69%
    05:00 +23°C° 0 mm 2 mps 694 mmHg 67%
    06:00 +23°C° 0 mm 2 mps 695 mmHg 64%
    07:00 +25°C° 0 mm 2 mps 695 mmHg 58%
    08:00 +26°C° 0 mm 3 mps 696 mmHg 52%
    09:00 +28°C° 0 mm 3 mps 697 mmHg 47%
    10:00 +30°C° 0 mm 4 mps 697 mmHg 43%
    11:00 +32°C° 0 mm 4 mps 697 mmHg 40%
    12:00 +33°C° 0 mm 4 mps 697 mmHg 37%
    13:00 +32°C° 0.2 mm 4 mps 696 mmHg 44%
    14:00 +29°C° 0.2 mm 4 mps 696 mmHg 51%
    15:00 +27°C° 0.2 mm 4 mps 695 mmHg 58%
    16:00 +26°C° 0.7 mm 3 mps 695 mmHg 63%
    17:00 +25°C° 0.7 mm 2 mps 695 mmHg 68%
    18:00 +24°C° 0.7 mm 2 mps 695 mmHg 73%
    19:00 +23°C° 0 mm 2 mps 695 mmHg 74%
    20:00 +23°C° 0 mm 2 mps 695 mmHg 75%
    21:00 +23°C° 0 mm 2 mps 695 mmHg 77%
    22:00 +21°C° 0 mm 2 mps 695 mmHg 78%
    23:00 +21°C° 0 mm 2 mps 695 mmHg 79%

    27 September, Thursday

    Time Temperature Precipitation Wind Pressure Humidity
    00:00 +22°C° 0 mm 1 mps 695 mmHg 80%
    01:00 +22°C° 0 mm 1 mps 695 mmHg 79%
    02:00 +21°C° 0 mm 2 mps 694 mmHg 79%
    03:00 +21°C° 0 mm 2 mps 694 mmHg 78%
    04:00 +21°C° 0 mm 1 mps 694 mmHg 79%
    05:00 +21°C° 0 mm 1 mps 694 mmHg 79%
    06:00 +21°C° 0 mm 1 mps 694 mmHg 80%
    07:00 +23°C° 0 mm 1 mps 695 mmHg 71%
    08:00 +26°C° 0 mm 1 mps 696 mmHg 63%
    09:00 +28°C° 0 mm 1 mps 697 mmHg 54%
    10:00 +29°C° 0 mm 2 mps 697 mmHg 50%
    11:00 +30°C° 0 mm 2 mps 697 mmHg 45%
    12:00 +31°C° 0 mm 2 mps 697 mmHg 41%
    13:00 +31°C° 0 mm 2 mps 696 mmHg 41%
    14:00 +31°C° 0 mm 2 mps 696 mmHg 41%
    15:00 +31°C° 0 mm 2 mps 695 mmHg 41%
    16:00 +30°C° 0 mm 2 mps 695 mmHg 48%
    17:00 +28°C° 0 mm 2 mps 695 mmHg 55%
    18:00 +27°C° 0 mm 1 mps 695 mmHg 61%
    19:00 +26°C° 0.1 mm 2 mps 695 mmHg 66%
    20:00 +25°C° 0.1 mm 2 mps 696 mmHg 71%
    21:00 +24°C° 0.1 mm 2 mps 696 mmHg 76%
    22:00 +23°C° 0 mm 2 mps 696 mmHg 77%
    23:00 +23°C° 0 mm 2 mps 696 mmHg 77%

    28 September, Friday

    Time Temperature Precipitation Wind Pressure Humidity
    00:00 +23°C° 0 mm 2 mps 696 mmHg 78%
    01:00 +23°C° 0 mm 2 mps 696 mmHg 78%
    02:00 +23°C° 0 mm 1 mps 696 mmHg 79%
    03:00 +22°C° 0 mm 1 mps 696 mmHg 79%
    04:00 +22°C° 0 mm 1 mps 696 mmHg 80%
    05:00 +22°C° 0 mm 1 mps 696 mmHg 80%
    06:00 +22°C° 0 mm 1 mps 696 mmHg 81%
    07:00 +24°C° 0 mm 2 mps 697 mmHg 73%
    08:00 +25°C° 0 mm 2 mps 697 mmHg 65%
    09:00 +27°C° 0 mm 2 mps 698 mmHg 58%
    10:00 +29°C° 0 mm 2 mps 698 mmHg 52%
    11:00 +31°C° 0 mm 2 mps 697 mmHg 46%
    12:00 +33°C° 0 mm 3 mps 697 mmHg 40%
    13:00 +33°C° 0 mm 3 mps 697 mmHg 41%
    14:00 +32°C° 0 mm 2 mps 696 mmHg 41%
    15:00 +32°C° 0 mm 2 mps 695 mmHg 41%
    16:00 +30°C° 0.2 mm 2 mps 695 mmHg 47%
    17:00 +29°C° 0.2 mm 2 mps 695 mmHg 52%
    18:00 +27°C° 0.2 mm 2 mps 695 mmHg 58%
    19:00 +26°C° 1.6 mm 2 mps 695 mmHg 64%
    20:00 +25°C° 1.6 mm 2 mps 696 mmHg 71%
    21:00 +24°C° 1.6 mm 2 mps 696 mmHg 77%
    22:00 +24°C° 1.8 mm 2 mps 696 mmHg 79%
    23:00 +23°C° 1.8 mm 2 mps 696 mmHg 82%
    Show more